[[{"header":{"parameterUnit":"m.s-1","parameterCategory":1,"la1":30.2991,"la2":30.254,"lo1":-89.0895,"lo2":-89.0444,"dy":0.0017,"dx":0.0017,"nx":28,"ny":28,"refTime":"2025-01-11T09:00:00:Z","depth":0,"parameterNumber":2,"parameterNumberName":"U-component_of_WINDS"},"data":[0,0,0,0,0,0,0,0,0,0,0,0,0,0,0,0,0,0,0,0,0,0,0,0,0,0,0,0,0,0,0,0,0,0,0,0,0,0,0,0,0,0,0,0,0,0,0,0,0,0,0,0,0,0,0,0,0,0,5.0036,5.0036,0,5.0104,5.0105,5.0106,5.0039,5.0037,5.0034,5.0032,5.0099,5.0103,5.0107,0,0,0,0,0,0,0,0,0,0,0,0,0,4.9846,4.985,5.0036,5.0037,5.0037,5.0104,5.0105,5.0106,5.004,5.0037,5.0034,5.0031,5.0097,5.0102,5.0108,0,0,0,0,0,0,0,0,0,0,0,0,0,4.9923,4.9851,5.0035,5.0013,5.0011,5.0104,5.0105,5.0106,5.0041,5.0037,5.0033,5.0029,5.0096,5.0102,5.0108,5.0226,0,0,5.0128,5.013,0,0,0,0,0,0,0,0,4.9918,4.993,5.0015,5.0014,5.0013,5.0059,5.0063,5.0146,5.0042,5.0029,5.0032,5.0027,5.0089,5.0095,5.0117,5.0229,5.0232,5.0128,5.0132,5.0135,5.0137,0,0,0,0,0,0,0,4.9913,4.9926,5.0063,5.0016,5.0015,4.9998,5.0005,5.0078,5.008,5.003,5.0025,5.0035,5.0087,5.0111,5.0118,5.0233,5.0128,5.0134,5.0138,5.014,5.0447,5.0451,0,0,0,0,0,0,4.9911,4.9922,5.006,5.0065,4.9955,5.0005,5.0012,5.0048,5.0079,5.008,5.0038,5.0031,5.0102,5.0111,5.012,5.0261,5.0135,5.0141,5.0144,5.0443,5.0448,5.0453,0,0,0,0,0,0,4.9907,4.9924,5.0058,4.9992,5.0008,5.0012,5.0053,5.0052,5.0075,5.0085,5.0085,5.0062,5.0099,5.0111,5.0201,5.0262,5.0144,5.0149,5.0438,5.0445,5.0451,5.0543,0,0,0,0,0,0,4.9902,4.9923,4.9968,4.9994,5.0012,5.0138,5.0057,5.0056,5.0087,5.0079,5.0107,5.0108,5.0097,5.0192,5.0207,5.0269,5.0154,5.0432,5.0441,5.0448,5.0534,5.0552,5.0566,0,0,0,0,0,4.9895,4.999,4.997,4.9987,5.0069,5.0142,5.0152,5.0138,5.0092,5.0137,5.0144,5.0107,5.0253,5.0201,5.0218,5.0283,5.0428,5.0438,5.0448,5.0527,5.0548,5.0566,0,0,0,0,0,0,4.9969,4.9993,4.9971,5.0078,5.0109,5.013,5.0187,5.0161,5.0204,5.0195,5.0174,5.0181,5.0277,5.0288,5.023,5.0399,5.0333,5.0347,5.0388,5.0408,5.0424,5.0418,5.016,0,0,0,0,0,4.9998,5.0057,5.0074,5.0166,5.0183,5.0183,5.0214,5.0201,5.0231,5.0243,5.0256,5.0287,5.0339,5.0374,5.0423,5.0536,5.0541,5.0589,5.0605,5.0618,5.063,5.0691,5.0712,5.0485,5.0485,5.0485,0,0,5.0058,5.0078,5.0116,5.0181,5.0203,5.0264,5.0194,5.026,5.0304,5.0253,5.0339,5.035,5.0382,5.0485,5.053,5.0498,5.0694,5.0631,5.0641,5.0646,5.0703,5.0725,5.0744,5.0492,5.049,5.0489,0,0,5.0198,5.0219,5.0299,5.0323,5.0359,5.0358,5.0378,5.0404,5.041,5.0496,5.0459,5.0512,5.0603,5.0628,5.0652,5.0805,5.0773,5.0821,5.0905,5.0965,5.0983,5.0999,5.1053,5.1073,5.0833,5.0833,5.0834,0,5.0267,5.0358,5.0343,5.0413,5.0443,5.0401,5.0481,5.0505,5.0554,5.0576,5.0539,5.0654,5.0672,5.078,5.0818,5.0839,5.086,5.0817,5.0982,5.0998,5.1012,5.1064,5.1084,5.0839,5.0838,5.0838,5.0837,0,5.0442,5.0505,5.0565,5.0615,5.0652,5.0727,5.0723,5.0762,5.0746,5.075,5.0839,5.0861,5.0914,5.0939,5.0923,5.1045,5.1024,5.0985,5.0918,5.104,5.1088,5.1107,5.0847,5.0845,5.0843,5.0842,0,0,5.0628,5.0671,5.0693,5.0716,5.0753,5.0801,5.0875,5.0928,5.0962,5.0998,5.1059,5.1138,5.1103,5.1131,5.1118,5.1171,5.1291,5.1126,5.1127,5.1156,5.1427,5.1456,5.1479,5.1271,5.1275,5.1278,5.1424,0,5.0769,5.0897,5.0887,5.1008,5.1067,5.1029,5.1093,5.1122,5.1128,5.1178,5.1184,5.1241,5.119,5.1207,5.1258,5.1266,5.1345,5.1255,5.1327,5.133,5.1319,5.1504,5.1534,5.1671,5.1443,5.1446,5.1449,0,5.095,5.0995,5.1122,5.1152,5.1176,5.1233,5.1282,5.1331,5.1364,5.1364,5.1397,5.1376,5.145,5.1383,5.1484,5.1423,5.1452,5.1461,5.1466,5.1471,5.1396,5.1514,5.1714,5.1735,5.1478,5.1476,5.1474,0,5.1074,5.1165,5.1253,5.1274,5.131,5.1352,5.1369,5.1398,5.1432,5.1474,5.1496,5.1546,5.1574,5.1613,5.1606,5.1558,5.171,5.1642,5.1712,5.1712,5.1744,5.1742,5.1952,5.1765,5.1764,5.1764,5.1763,0,5.1232,5.1311,5.1309,5.1363,5.1451,5.1439,5.1526,5.1538,5.1565,5.1621,5.1591,5.1644,5.1632,5.1685,5.168,5.1765,5.1777,5.1779,5.1777,5.1782,5.1782,5.18,5.179,5.1769,5.1768,5.1767,5.1766,0,5.1384,5.1386,5.1479,5.1508,5.1516,5.158,5.1604,5.1655,5.1659,5.173,5.1746,5.1753,5.1813,5.1811,5.1879,5.1876,5.198,5.1967,5.1969,5.1966,5.2037,5.203,5.2265,5.2295,5.2088,5.209,5.2092,0,5.1484,5.1545,5.158,5.1616,5.1636,5.1694,5.1729,5.1719,5.1756,5.18,5.1846,5.1904,5.195,5.2048,5.2058,5.2111,5.2098,5.2177,5.2106,5.2109,5.2099,5.2095,5.2101,5.219,5.2193,5.2195,5.2196,0,5.1662,5.1661,5.1712,5.1765,5.1807,5.1848,5.1885,5.1916,5.191,5.1954,5.2016,5.2052,5.2122,5.218,5.2231,5.2248,5.2222,5.2219,5.2238,5.2243,5.2242,5.2243,5.2007,5.2213,5.2212,5.221,5.2209,5.2209,5.1791,5.1844,5.1877,5.1936,5.1963,5.1999,5.2049,5.2061,5.2113,5.217,5.2162,5.2232,5.2264,5.233,5.2352,5.2406,5.2378,5.2405,5.2412,5.2419,5.2427,5.2234,5.2415,5.2414,5.2414,5.2414,5.2413,0,5.1968,5.1988,5.2042,5.2096,5.2142,5.2116,5.2156,5.2196,5.2258,5.2291,5.2338,5.241,5.2467,5.2483,5.2537,5.2578,5.2567,5.2592,5.2589,5.2593,5.2448,5.2427,5.26,5.26,5.26,5.26,5.26,5.26,5.2065,5.2152,5.2155,5.2256,5.2276,5.2345,5.237,5.2403,5.243,5.2512,5.256,5.2571,5.2597,5.2654,5.2705,5.2708,5.2729,5.2759,5.2758,5.2622,5.2603,5.2585,5.2565,5.2764,5.2764,5.2898,5.2899,5.29]},{"header":{"parameterUnit":"m.s-1","parameterCategory":1,"la1":30.2991,"la2":30.254,"lo1":-89.0895,"lo2":-89.0444,"dy":0.0017,"dx":0.0017,"nx":28,"ny":28,"refTime":"2025-01-11T09:00:00:Z","depth":0,"parameterNumber":3,"parameterNumberName":"V-component_of_WINDS"},"data":[0,0,0,0,0,0,0,0,0,0,0,0,0,0,0,0,0,0,0,0,0,0,0,0,0,0,0,0,0,0,0,0,0,0,0,0,0,0,0,0,0,0,0,0,0,0,0,0,0,0,0,0,0,0,0,0,0,0,-4.248,-4.2481,0,-4.2644,-4.2646,-4.2648,-4.2626,-4.2623,-4.262,-4.2618,-4.2788,-4.2795,-4.2802,0,0,0,0,0,0,0,0,0,0,0,0,0,-4.2148,-4.2154,-4.2479,-4.2482,-4.2484,-4.2644,-4.2646,-4.2648,-4.2626,-4.2623,-4.2619,-4.2616,-4.2785,-4.2794,-4.2802,0,0,0,0,0,0,0,0,0,0,0,0,0,-4.23,-4.2156,-4.2479,-4.2492,-4.2495,-4.2643,-4.2646,-4.2649,-4.2627,-4.2623,-4.2619,-4.2615,-4.2783,-4.2793,-4.2803,-4.2951,0,0,-4.2836,-4.284,0,0,0,0,0,0,0,0,-4.2291,-4.2312,-4.2488,-4.2491,-4.2495,-4.261,-4.2592,-4.275,-4.2628,-4.2577,-4.2618,-4.2613,-4.2732,-4.2747,-4.2786,-4.2959,-4.2966,-4.2837,-4.2843,-4.2848,-4.2851,0,0,0,0,0,0,0,-4.2281,-4.2305,-4.2545,-4.249,-4.2495,-4.249,-4.2507,-4.2622,-4.2675,-4.2581,-4.258,-4.2599,-4.2733,-4.2776,-4.279,-4.2968,-4.2836,-4.2846,-4.2852,-4.2857,-4.3271,-4.3275,0,0,0,0,0,0,-4.2267,-4.2296,-4.2539,-4.255,-4.2381,-4.2499,-4.2518,-4.2577,-4.2674,-4.2685,-4.2603,-4.2598,-4.276,-4.2778,-4.2796,-4.2976,-4.2848,-4.2858,-4.2864,-4.3266,-4.3272,-4.3277,0,0,0,0,0,0,-4.226,-4.2289,-4.2533,-4.2423,-4.2454,-4.2509,-4.2576,-4.2583,-4.2626,-4.269,-4.27,-4.2637,-4.2758,-4.2781,-4.2913,-4.2981,-4.2862,-4.2872,-4.3261,-4.3268,-4.3274,-4.3336,0,0,0,0,0,0,-4.225,-4.2286,-4.2342,-4.2424,-4.2459,-4.2646,-4.258,-4.2589,-4.2644,-4.2639,-4.2725,-4.2735,-4.2756,-4.2897,-4.2923,-4.2994,-4.288,-4.3255,-4.3264,-4.3272,-4.3328,-4.3344,-4.3358,0,0,0,0,0,-4.2239,-4.2353,-4.2345,-4.2375,-4.2531,-4.265,-4.267,-4.2691,-4.2649,-4.2707,-4.2748,-4.2733,-4.2969,-4.2911,-4.294,-4.3015,-4.3251,-4.3261,-4.3272,-4.3321,-4.3341,-4.3357,0,0,0,0,0,0,-4.2278,-4.2364,-4.2356,-4.2501,-4.2568,-4.2646,-4.2719,-4.2711,-4.2793,-4.2785,-4.2808,-4.2828,-4.2961,-4.3001,-4.2934,-4.3163,-4.3104,-4.3121,-4.3132,-4.3151,-4.3166,-4.3154,-4.2889,0,0,0,0,0,-4.2304,-4.2393,-4.2463,-4.2584,-4.2618,-4.2663,-4.2716,-4.2726,-4.2797,-4.2826,-4.2877,-4.2947,-4.3037,-4.3096,-4.3183,-4.3333,-4.3352,-4.3399,-4.3414,-4.3426,-4.3441,-4.3524,-4.3546,-4.3311,-4.3311,-4.3311,0,0,-4.2357,-4.2415,-4.247,-4.2593,-4.2647,-4.274,-4.2687,-4.2787,-4.2856,-4.2841,-4.2968,-4.3009,-4.3088,-4.323,-4.3295,-4.3268,-4.351,-4.344,-4.3449,-4.3457,-4.3537,-4.356,-4.3579,-4.3318,-4.3317,-4.3316,0,0,-4.2503,-4.2555,-4.2662,-4.2716,-4.2798,-4.2827,-4.2853,-4.2932,-4.2958,-4.3086,-4.3077,-4.316,-4.3315,-4.3372,-4.3422,-4.359,-4.3579,-4.3617,-4.3696,-4.3777,-4.3795,-4.3812,-4.3873,-4.3894,-4.3632,-4.3632,-4.3632,0,-4.2559,-4.2698,-4.2717,-4.2819,-4.2874,-4.2864,-4.2973,-4.3025,-4.3131,-4.317,-4.3137,-4.3332,-4.3385,-4.3541,-4.3582,-4.3622,-4.3653,-4.3608,-4.3791,-4.3808,-4.3824,-4.3882,-4.3905,-4.3636,-4.3635,-4.3635,-4.3635,0,-4.2764,-4.286,-4.2937,-4.3039,-4.3102,-4.3207,-4.3243,-4.3305,-4.3311,-4.3343,-4.3474,-4.3538,-4.3637,-4.3675,-4.3681,-4.3832,-4.3812,-4.3785,-4.3727,-4.385,-4.3905,-4.3928,-4.3642,-4.364,-4.3639,-4.3638,0,0,-4.2939,-4.3051,-4.3079,-4.3125,-4.3215,-4.329,-4.3395,-4.3492,-4.3545,-4.3619,-4.3708,-4.3839,-4.3815,-4.3871,-4.3884,-4.3955,-4.4085,-4.392,-4.3922,-4.3949,-4.4257,-4.4277,-4.4303,-4.4078,-4.4083,-4.4086,-4.425,0,-4.3093,-4.3277,-4.3299,-4.3463,-4.3553,-4.3545,-4.3637,-4.3702,-4.3736,-4.3817,-4.3854,-4.3948,-4.3908,-4.3942,-4.4012,-4.4055,-4.4148,-4.4043,-4.4162,-4.4166,-4.4143,-4.4331,-4.4353,-4.4505,-4.4272,-4.4276,-4.4278,0,-4.3298,-4.3377,-4.3551,-4.3629,-4.3667,-4.3749,-4.384,-4.3918,-4.3992,-4.4012,-4.4075,-4.4079,-4.4188,-4.4125,-4.4276,-4.4204,-4.4254,-4.4283,-4.4289,-4.4302,-4.423,-4.435,-4.4554,-4.4577,-4.4312,-4.431,-4.4307,0,-4.3409,-4.3559,-4.3683,-4.3723,-4.3817,-4.3875,-4.3916,-4.3987,-4.4044,-4.4124,-4.4162,-4.4253,-4.4304,-4.4375,-4.4404,-4.4355,-4.4554,-4.4493,-4.4574,-4.4573,-4.4617,-4.4614,-4.4832,-4.4648,-4.4647,-4.4647,-4.4646,0,-4.358,-4.3687,-4.3734,-4.381,-4.393,-4.3953,-4.4071,-4.4111,-4.4174,-4.4258,-4.4257,-4.4336,-4.4369,-4.4453,-4.4477,-4.4599,-4.4621,-4.4641,-4.4646,-4.4642,-4.4639,-4.4675,-4.4666,-4.4653,-4.4652,-4.465,-4.4649,0,-4.3725,-4.3761,-4.3895,-4.3973,-4.3995,-4.408,-4.4147,-4.4221,-4.4253,-4.436,-4.4386,-4.4438,-4.4538,-4.4573,-4.4694,-4.471,-4.4852,-4.4848,-4.4827,-4.4828,-4.4908,-4.49,-4.5158,-4.5194,-4.4984,-4.4986,-4.4988,0,-4.3832,-4.3914,-4.4,-4.4056,-4.41,-4.4191,-4.4249,-4.4276,-4.4337,-4.4428,-4.4492,-4.4591,-4.4671,-4.4831,-4.488,-4.4973,-4.4972,-4.5056,-4.4986,-4.4979,-4.4974,-4.4969,-4.4978,-4.5069,-4.5071,-4.5073,-4.5074,0,-4.4018,-4.4032,-4.4116,-4.4207,-4.4277,-4.435,-4.442,-4.4466,-4.4504,-4.4573,-4.4674,-4.4737,-4.4861,-4.496,-4.5055,-4.5099,-4.5094,-4.5096,-4.512,-4.5116,-4.5101,-4.5112,-4.4864,-4.509,-4.5088,-4.5087,-4.5086,-4.5086,-4.4148,-4.4221,-4.4293,-4.4387,-4.4443,-4.4509,-4.4583,-4.4625,-4.471,-4.4812,-4.4823,-4.4933,-4.5006,-4.5134,-4.5182,-4.5269,-4.5246,-4.5281,-4.529,-4.5298,-4.5304,-4.5087,-4.5287,-4.5286,-4.5286,-4.5286,-4.5285,0,-4.4336,-4.4382,-4.4468,-4.4567,-4.4641,-4.4628,-4.4706,-4.4769,-4.4866,-4.4934,-4.5014,-4.5131,-4.5227,-4.5284,-4.538,-4.5439,-4.5439,-4.5464,-4.546,-4.5471,-4.5319,-4.5289,-4.5462,-4.5462,-4.5462,-4.5462,-4.5462,-4.5462,-4.4442,-4.4564,-4.4587,-4.4738,-4.4783,-4.4891,-4.4936,-4.4998,-4.5053,-4.5184,-4.5263,-4.5299,-4.5363,-4.5465,-4.5552,-4.5567,-4.5603,-4.563,-4.5642,-4.5499,-4.5481,-4.5464,-4.5436,-4.5637,-4.5637,-4.5787,-4.5788,-4.5789]}]]